Regional Weather Roundup
Issued by NWS

Home | Current Version | Previous Version | Graphics & Text | Print | Product List | Glossary On
Versions: 1 2 3 4 5 6 7 8 9 10 11 12 13 14 15 16 17 18 19 20 21 22 23 24 25 26 27 28 29 30 31 32 33 34 35 36 37 38 39 40 41 42 43 44 45 46 47 48 49 50
995
ASUS43 KIND 210259
RWRIN

WEATHER ROUNDUP FOR INDIANA
NATIONAL WEATHER SERVICE INDIANAPOLIS IN
1000 PM EST MON FEB 20 2017

NOTE: "FAIR" INDICATES FEW OR NO CLOUDS BELOW 12,000 FEET WITH NO
SIGNIFICANT WEATHER AND/OR OBSTRUCTIONS TO VISIBILITY.

* - STATION DOES NOT REPORT WEATHER SUCH AS PRECIPITATION OR FOG.

+ - STATION NOT QUALITY CONTROLLED BY THE NATIONAL WEATHER SERVICE.
    USE DATA WITH CAUTION...ESPECIALLY DEWPOINT AND RELATIVE
    HUMIDITY OBSERVATIONS.

INZ001>003-010>013-019-020-210400-
NORTHWEST INDIANA

CITY           SKY/WX    TMP DP  RH WIND       PRES   REMARKS
GARY /AIRPORT/ CLOUDY    63  43  48 SE16G32   29.96F
KNOX *+        CLOUDY    55  21  26 SE18      30.01S
LA PORTE +     CLOUDY    55  42  59 SE13      30.01F

$$

LMZ046-743>745-210400-
SOUTHERN LAKE MICHIGAN

STATION/POSITION TIME  TEMP    WIND        PRES    WAVE
                       AIR SEA DIR/SP/G            HT
                 (UTC) (F)     (DEG/KT/KT) (MB)    (FT)
BURNS HARBOR     0240   60     160/  9/ 18 1015.2F
MICHIGAN CITY    0230   59     130/ 17/ 20   N/A

$$

INZ004-005-014>016-021>024-210400-
NORTH CENTRAL INDIANA

CITY           SKY/WX    TMP DP  RH WIND       PRES   REMARKS
GOSHEN         MOCLDY    51  38  60 SE13      30.05F
SOUTH BEND     CLOUDY    56  41  57 SE15      30.04F
WARSAW +       CLOUDY    55  41  58 SE9G16    30.05F

$$

INZ006>009-017-018-025>027-210400-
NORTHEAST INDIANA

CITY           SKY/WX    TMP DP  RH WIND       PRES   REMARKS
ANGOLA *+      CLEAR     43  34  70 SE10      30.11F
FORT WAYNE     CLOUDY    48  40  73 E9        30.10S
KENDALLVILLE + MOCLDY    45  35  68 SE10      30.09F

$$

INZ028-029-035-036-043>045-051>053-210400-
WEST CENTRAL INDIANA

CITY           SKY/WX    TMP DP  RH WIND       PRES   REMARKS
LAFAYETTE      CLOUDY    57  47  69 SE8       30.01F
TERRE HAUTE    PTCLDY    56  45  66 SE7       30.01F

$$

INZ030>032-037>040-046>048-054>057-064-065-210400-
CENTRAL INDIANA

CITY           SKY/WX    TMP DP  RH WIND       PRES   REMARKS
COLUMBUS       CLEAR     50  48  93 CALM      30.07F
FRANKFORT +    CLOUDY    56  49  76 SE12      30.04F
GREENWOOD *+   CLOUDY    56  48  74 SE5       30.07F
INDIANAPOLIS   CLOUDY    55  47  74 SE10      30.04F
-EAGLE CREEK   PTCLDY    58  46  64 SE8       30.04F
KOKOMO +       CLOUDY    55  46  71 SE10      30.05F
MT COMFORT *+  CLOUDY    54  46  76 SE8       30.06F
SHELBYVILLE    PTCLDY    55  46  71 E9        30.06F

$$

INZ033-034-041-042-049-050-058-059-210400-
EAST CENTRAL INDIANA

CITY           SKY/WX    TMP DP  RH WIND       PRES   REMARKS
MUNCIE         PTCLDY    56  42  59 SE8       30.08F

$$

INZ060-061-067>069-081>083-085>088-210400-
SOUTHWEST INDIANA

CITY           SKY/WX    TMP DP  RH WIND       PRES   REMARKS
EVANSVILLE     MOCLDY    58  47  66 E3        30.02F
HUNTINGBURG *+ MOCLDY    55  46  71 SE6       30.04S

$$

INZ062-063-066-070>080-084-089>092-210400-
SOUTH CENTRAL AND SOUTHEAST INDIANA

CITY           SKY/WX    TMP DP  RH WIND       PRES   REMARKS
BLOOMINGTON    CLOUDY    49  42  77 E5        30.05F
MADISON *+     CLOUDY    59  45  58 SE6       30.10S
SEYMOUR +      CLOUDY    50  45  81 S3        30.06F

$$





USA.gov is the U.S. government's official web portal to all federal, state and local government web resources and services.